Regional Weather Roundup
Issued by NWS

Home | Current Version | Previous Version | Graphics & Text | Print | Product List | Glossary On
Versions: 1 2 3 4 5 6 7 8 9 10 11 12 13 14 15 16 17 18 19 20 21 22 23 24 25 26 27 28 29 30 31 32 33 34 35 36 37 38 39 40 41 42 43 44 45 46 47 48 49 50
000
ASUS43 KLOT 030112
RWRIL

ILLINOIS REGIONAL WEATHER ROUNDUP
NATIONAL WEATHER SERVICE CHICAGO/ROMEOVILLE IL
800 PM CDT SUN AUG 02 2015

NOTE: "FAIR" INDICATES FEW OR NO CLOUDS BELOW 12,000 FEET WITH NO
SIGNIFICANT WEATHER AND/OR OBSTRUCTIONS TO VISIBILITY.

* THESE STATIONS ARE NOT UNDER NWS QUALITY CONTROL. THEY ALSO MAY NOT
  REPORT WEATHER SUCH AS PRECIPITATION OR FOG.

ILZ001-002-007-009-015-016-024-030200-
NORTHWEST ILLINOIS

CITY           SKY/WX    TMP DP  RH WIND       PRES   REMARKS
MOLINE         MOCLDY    86  74  67 SW12      29.73R HX  94
STERLING*      MOCLDY    84  73  70 W10       29.68R HX  91
SAVANNA*       PTCLDY    86  73  66 W9        29.69R HX  93
$$

ILZ003-004-008-010-011-017-018-030200-
NORTH CENTRAL ILLINOIS

CITY           SKY/WX    TMP DP  RH WIND       PRES   REMARKS
ROCKFORD       PTCLDY    85  72  65 SW14      29.67S HX  91
FREEPORT*      CLEAR     82  74  76 W10       29.69R HX  89
ROCHELLE*      PTCLDY    82  74  76 SW10      29.69S HX  88
DE KALB*       CLEAR     82  74  74 SW18      29.69S HX  88
PERU*          CLEAR     84  70  62 SW15G21   29.73R HX  88
$$

ILZ005-006-012>014-019>023-030200-
NORTHEAST ILLINOIS

CITY           SKY/WX    TMP DP  RH WIND       PRES   REMARKS
CHICAGO-OHARE  MOCLDY    86  71  60 SW18G31   29.66S HX  91
CHICAGO-MIDWAY MOCLDY    88  68  51 SW20G31   29.67S HX  91
AURORA         MOCLDY    85  70  60 SW15G22   29.69S HX  89
LANSING*       CLEAR     84  70  61 SW18G25   29.71R HX  88
JOLIET*        MOCLDY    87  71  59 SW8G16    29.71R HX  92
WAUKEGAN       MOCLDY    85  70  60 SW17G30   29.62S HX  89
DUPAGE AIRPORT MOCLDY    84  71  65 SW16G26   29.68S HX  89
KANKAKEE*      CLEAR     82  73  72 SW10      29.74R HX  88
WHEELING       PTCLDY    87  70  56 SW18G33   29.66S HX  92
MORRIS*        CLEAR     84  69  61 SW12G21   29.70S HX  88
ROMEOVILLE*    CLOUDY    85  67  55 SW16G25   29.70S HX  87
NORTHERLY ISL    N/A     87  66  49 SW16        N/A  HX  89
$$

LMZ740>746-030200-
SOUTHERN LAKE MICHIGAN

STATION/POSITION SKY/WX   TEMP    WIND        PRES    VSBY  WAVE
                          AIR SEA DIR/SP/G                  HT/PER
                          (F)     (DEG/KT/KT) (MB)    (MI)  (FT/S)
HARRISON CRIB              87     230/ 27/ 37   N/A
BURNHAM HARBOR             87     230/ 17/ 22   N/A
CALUMET HARBOR             87     200/ 19/ 26   N/A
BURNS HARBOR               86     220/ 26/ 27 1005.4F
MICHIGAN CITY              85     190/ 25/ 31   N/A
MICHIGAN CITY 6N           81 74  230/ 16/ 21   N/A           5/ 4
ST. JOSEPH                 79 73  250/ 19/ 21   N/A           5/ 5
$$

ILZ025>027-034>036-040-047-049-050-058-095>099-030200-
WEST-CENTRAL ILLINOIS

CITY           SKY/WX    TMP DP  RH WIND       PRES   REMARKS
QUINCY         CLEAR     82  73  74 SW7       29.81R HX  87
GALESBURG*     CLEAR     82  73  74 SW9       29.77R HX  87
MACOMB*        CLEAR     82  73  72 SW7       29.80R HX  88
JACKSONVILLE*  CLEAR     84  73  68 SW6       29.80R HX  90
PITTSFIELD*    CLEAR     84  72  66 SW6       29.82R HX  89
$$

ILZ028>032-037-038-041>044-048-051>054-059>061-030200-
CENTRAL ILLINOIS

CITY           SKY/WX    TMP DP  RH WIND       PRES   REMARKS
PONTIAC        CLEAR     84  71  65 SW10G20   29.75R HX  89
BLOOMINGTON    CLEAR     83  71  66 SW13      29.79R HX  87
DECATUR        CLEAR     83  71  67 SW10      29.80S HX  87
PEORIA         CLEAR     86  71  60 SW13      29.77R HX  91
LACON*         CLEAR     84  71  65 SW9       29.74R HX  88
LINCOLN*       CLEAR     84  68  58 SW6       29.77S HX  88
SPRINGFIELD    CLEAR     84  69  60 SW8       29.79F HX  88
TAYLORVILLE    CLEAR     81  72  74 SW7       29.81S HX  84
$$

ILZ033-039-045-046-055>057-062-063-030200-
EAST-CENTRAL ILLINOIS

CITY           SKY/WX    TMP DP  RH WIND       PRES   REMARKS
CHAMPAIGN      CLEAR     80  72  76 S6        29.80F HX  84
DANVILLE*      CLEAR     80  70  70 S9        29.77S HX  83
RANTOUL*       CLEAR     84  71  65 SW9       29.78F HX  88
MATTOON        CLEAR     82  69  64 S5        29.81F HX  85
PARIS*         CLEAR     80  71  73 S5        29.82S HX  83
$$

ILZ079-100>102-030200-
SOUTHWEST ILLINOIS

CITY           SKY/WX    TMP DP  RH WIND       PRES   REMARKS
ALTON          PTCLDY    82  68  61 SW9       29.83S HX  85
BELLEVILLE     CLEAR     86  72  62 SW6       29.82F HX  92
CAHOKIA*       CLEAR     88  68  51 SW3       29.83S HX  91
SPARTA*        CLEAR     86  72  63 S6        29.86S HX  92
$$

ILZ064>066-069>071-074>076-080>082-084>086-088>090-092>094-030200-
SOUTH-CENTRAL ILLINOIS

CITY           SKY/WX    TMP DP  RH WIND       PRES   REMARKS
CARBONDALE     CLEAR     83  72  69 S7        29.85F HX  88
CAIRO*         CLEAR     84  72  67 S3        29.87S HX  89
EFFINGHAM*     CLEAR     83  68  60 SE5       29.84S HX  86
MARION         CLEAR     82  73  74 S5        29.87F HX  88
MT. VERNON     CLEAR     84  70  61 S7        29.85F HX  88
CENTRALIA*     CLEAR     82  71  68 S7        29.84F HX  86
SALEM*         CLEAR     86  72  62 S7        29.84F HX  92
METROPOLIS*    CLEAR     82  74  75 CALM      29.88F HX  88
$$

ILZ067-068-072-073-078-083-087-091-030200-
SOUTHEAST ILLINOIS

CITY           SKY/WX    TMP DP  RH WIND       PRES   REMARKS
LAWRENCEVILLE  CLEAR     80  72  76 S8        29.85F HX  84
FLORA*         CLEAR     82  70  66 S6        29.84F HX  86
FAIRFIELD*     CLEAR     82  73  74 S6        29.84F HX  87
HARRISBURG*    CLEAR     83  73  71 S5        29.88F HX  89
ROBINSON*      CLEAR     80  71  73 S7        29.85S HX  84
CARMI*         CLEAR     80  70  72 S6        29.86F HX  83
$$

ABBREVIATIONS USED IN REMARKS
   TC - TEMPERATURE IN CELSIUS
  WCI - WIND CHILL INDEX
   HX - HEAT INDEX
  VSB - VISIBILITY
$$



USA.gov is the U.S. government's official web portal to all federal, state and local government web resources and services.